{"data":{"norad_id":51790,"intl_designator":"2022-017Y","name":"STARLINK-3631","alt_names":[],"object_type":"PAYLOAD","status":"ACTIVE","operator":null,"country":"US","launch_date":"2022-02-25","launch_site_code":"AFWTR","launch_vehicle":null,"mission":null,"orbit_class":"UNKNOWN","rcs_meters":null,"size_class":null,"mass_kg":null,"dimensions":null,"purposes":["comms"],"wikipedia_slug":null,"has_3d_model":false,"image_url":null,"decayed_at":null,"tle_current":{"epoch":"2026-09-20T04:12:04.091040Z","epoch_age_seconds":79773,"freshness":"FRESH","line1":"1 51790U 22017Y   26263.17504735  .00009132  00000+0  55529-3 0  9998","line2":"2 51790  53.2121 195.1621 0003018  89.8380 270.2959 15.11134091253348","mean_motion":15.11134091,"eccentricity":0.0003018,"inclination_deg":53.2121,"raan_deg":195.1621,"arg_perigee_deg":89.838,"mean_anomaly_deg":270.2959,"bstar":0.00055529,"rev_number":25334,"period_min":95.292668504823,"perigee_km":530.65444038001,"apogee_km":534.82584582358,"semimajor_km":6910.8771431018,"source":"CELESTRAK","updated_at":"2026-09-20T09:00:39.940502Z"}}}